Location: Little Chesterford
(52.0500°N, 0.1833°E)
Time: 04:24:32
(UTC+00:00)

Cosmos 614 Rocket - Pass Details

Date: 26 September 2023
Orbit: 730 x 762 km, 74.1° (Epoch: 29 November)

Event Time Altitude Azimuth Distance (km) Brightness Sun altitude
Rises 20:22:37 0° 208° (SSW) 3,146 7.2 -23.4°
Reaches altitude 10° 20:24:57 10° 210° (SSW) 2,227 6.4 -23.7°
Maximum altitude 20:29:59 77° 296° (WNW) 757 4.0 -24.4°
Drops below altitude 10° 20:35:04 10° 23° (NNE) 2,246 6.5 -25.1°
Sets 20:37:26 0° 25° (NNE) 3,175 7.3 -25.4°
